Regional Weather Roundup
Issued by NWS State College, PA

Home | Current Version | Previous Version | Text Only | Print | Product List | Glossary On
Versions: 1 2 3 4 5 6 7 8 9 10 11 12 13 14 15 16 17 18 19 20 21 22 23 24 25 26 27 28 29 30 31 32 33 34 35 36 37 38 39 40 41 42 43 44 45 46 47 48 49 50
000
ASUS41 KCTP 301103
RWRCTP

REGIONAL WEATHER ROUNDUP
NATIONAL WEATHER SERVICE STATE COLLEGE PA
700 AM EDT SUN AUG 30 2015

Note: "fair" indicates few or no clouds below 12,000 feet with no
significant weather and/or obstructions to visibility.

* = STATION THAT DOES NOT REPORT PRECIPITATION /E.G. RAIN...SNOW...ETC/
    THUNDER OR FOG.

PAZ002>004-007>009-013>016-020>023-029>032-301200-
WESTERN PENNSYLVANIA

CITY           SKY/WX    TMP DP  RH WIND       PRES   REMARKS
ERIE           CLOUDY    67  64  90 S3        30.09R
MEADVILLE      CLOUDY    66  64  93 VRB7      30.13R FOG
FRANKLIN*      CLOUDY    64  63  94 S7        30.15S
NEW CASTLE     LGT RAIN  67  67 100 CALM      30.13S FOG
BEAVER COUNTY  NOT AVBL
BUTLER*        CLOUDY    64  63  94 CALM      30.15S
PITTSBURGH INT LGT RAIN  67  65  93 CALM      30.13R
PITTSBURGH     LGT RAIN  67  62  84 CALM      30.13R
INDIANA*       CLOUDY    66  63  88 SW5       30.18R
LATROBE        LGT RAIN  66  66 100 SW7       30.16R
WASHINGTON CO* MOCLDY    64  64 100 S3        30.15S
$$

PAZ004>006-010>012-017>019-024>028-033>037-041-042-045-046-049>053-301200-
CENTRAL PENNSYLVANIA

CITY           SKY/WX    TMP DP  RH WIND       PRES   REMARKS
BRADFORD       LGT RAIN  60  58  92 CALM      30.15R FOG
DUBOIS         MOCLDY    65  61  87 NW3       30.15R
CLEARFIELD     MOCLDY    59  57  93 S3        30.14R FOG
JOHNSTOWN      PTCLDY    65  58  78 SW7       30.18R
ALTOONA        PTCLDY    58  56  93 S3        30.15R FOG
STATE COLLEGE  CLEAR     59  57  94 CALM      30.13R
WILLIAMSPORT   PTCLDY    61  58  90 CALM      30.10R
SELINSGROVE    PTCLDY    59  57  93 CALM      30.11R FOG
FT INDIANTOWN  FOG       61  61 100 CALM      30.11R VSB 3/4
CAPITAL CITY   CLEAR     64  62  93 CALM      30.11R
HARRISBURG     PTCLDY    67  63  87 SE5       30.10R
YORK           PTCLDY    59  58  96 NW3       30.11R FOG
$$

PAZ038>040-043-044-047-048-054-055-060>062-067>071-301200-
EASTERN PENNSYLVANIA

CITY           SKY/WX    TMP DP  RH WIND       PRES   REMARKS
SCRANTON       CLOUDY    64  59  83 E3        30.11R
MOUNT POCONO   PTCLDY    62  60  93 NW3       30.15R FOG
ALLENTOWN      CLEAR     62  59  90 CALM      30.11R
QUAKERTOWN*    SUNNY     59  57  94 CALM      30.13R
READING        CLEAR     65  61  87 CALM      30.10R
LANCASTER      CLEAR     62  60  93 E5        30.11R FOG
COATESVILLE    SUNNY     64  64 100 CALM      30.13R FOG
POTTSTOWN      CLEAR     63  62  97 CALM      30.13R
BLUE BELL      CLEAR     61  61 100 CALM      30.11R
DOYLESTOWN     CLEAR     61  61 100 CALM      30.11R
WILLOW GROVE   NOT AVBL
NORTH PHILA    CLEAR     67  59  75 CALM      30.12R
PHILADELPHIA   PTCLDY    70  63  78 S7        30.11S
$$


USA.gov is the U.S. government's official web portal to all federal, state and local government web resources and services.